Change the Weather History Date:

Friday, September 20, 2013

  Actual Average Record
Temperature  
Mean Temperature 68 °F 61 °F  
Max Temperature 75 °F 70 °F 92 °F (1891)
Min Temperature 60 °F 53 °F 30 °F (1956)
Degree Days  
Heating Degree Days 0 5  
Month to date heating degree days 44 56  
Since 1 July heating degree days 66 82  
Cooling Degree Days 3 2  
Month to date cooling degree days 99 60  
Year to date cooling degree days 676 625  
Growing Degree Days 18 (Base 50)    
Moisture  
Dew Point 61 °F    
Average Humidity 74    
Maximum Humidity 90    
Minimum Humidity 57    
Precipitation  
Precipitation T in 0.12 in 3.40 in (1923)
Month to date precipitation 1.45 2.12  
Year to date precipitation 31.58 26.30  
Snow  
Snow 0.00 in 0.00 in T in (1954)
Month to date snowfall 0.0 0.0  
Since 1 July snowfall 0.0 0.0  
Since 1 September snowfall 0.0 0.0  
Snow Depth 0.00 in    
Sea Level Pressure  
Sea Level Pressure 29.77 in    
Wind  
Wind Speed 11 mph (WSW)    
Max Wind Speed 20 mph    
Max Gust Speed 25 mph    
Visibility 9 miles    
Events Rain    
T = Trace of Precipitation, MM = Missing Value Source: NWS Daily Summary

Daily Weather History Graph

Daily Weather History Graph

Search for Another Location

Airport or City:

Trip Planner

Search our weather history database for the weather conditions in past years. The results will help you decide how hot, cold, wet, or windy it might be!

Date:

Astronomy

Sep. 20, 2013 Rise Set
Actual Time 6:37 AM CDT 6:52 PM CDT
Civil Twilight 6:08 AM CDT 7:20 PM CDT
Nautical Twilight 5:35 AM CDT 7:53 PM CDT
Astronomical Twilight 5:01 AM CDT 8:27 PM CDT
Moon 7:22 PM CDT (9/20) 7:54 AM CDT (9/20)
Length of Visible Light 13h 11m
Length of Day
12h 15m
Full, 98% of the Moon is Illuminated
Sep 20
Full
Sep 26
Last Quarter
Oct 4
New
Oct 11
First Quarter
Oct 18
Full

Hourly Weather History & Observations

Time (CDT) Temp. Dew Point Humidity Pressure Visibility Wind Dir Wind Speed Gust Speed Precip Events Conditions
12:52 AM 69.1 °F 66.9 °F 93% 29.76 in 6.0 mi SSW 8.1 mph - N/A   Mostly Cloudy
1:52 AM 69.1 °F 66.0 °F 90% 29.78 in 10.0 mi SW 11.5 mph - N/A   Mostly Cloudy
2:52 AM 69.1 °F 66.0 °F 90% 29.73 in 10.0 mi WSW 9.2 mph - 0.00 in Rain Light Rain
3:52 AM 68.0 °F 64.9 °F 90% 29.72 in 10.0 mi SW 9.2 mph - 0.00 in   Scattered Clouds
4:48 AM 68.0 °F 64.4 °F 88% 29.76 in 10.0 mi SW 10.4 mph - N/A   Mostly Cloudy
4:52 AM 68.0 °F 64.9 °F 90% 29.75 in 10.0 mi SW 10.4 mph - N/A   Mostly Cloudy
5:05 AM 68.0 °F 64.4 °F 88% 29.76 in 10.0 mi SW 10.4 mph - N/A   Overcast
5:52 AM 68.0 °F 64.9 °F 90% 29.76 in 10.0 mi SW 8.1 mph - N/A   Overcast
6:52 AM 68.0 °F 64.9 °F 90% 29.77 in 10.0 mi SW 11.5 mph - N/A   Overcast
7:52 AM 68.0 °F 64.9 °F 90% 29.78 in 6.0 mi SW 9.2 mph - 0.00 in   Light Drizzle
8:00 AM 68.0 °F 64.4 °F 88% 29.79 in 2.0 mi SW 8.1 mph - 0.00 in   Light Drizzle
8:22 AM 68.0 °F 64.4 °F 88% 29.79 in 6.0 mi SW 11.5 mph - 0.00 in   Overcast
8:40 AM 68.0 °F 66.2 °F 94% 29.79 in 5.0 mi SW 11.5 mph - 0.00 in   Overcast
8:52 AM 68.0 °F 66.0 °F 93% 29.79 in 10.0 mi SW 12.7 mph - 0.00 in   Overcast
9:52 AM 69.1 °F 66.0 °F 90% 29.79 in 10.0 mi WSW 13.8 mph 19.6 mph N/A   Overcast
10:20 AM 69.8 °F 64.4 °F 83% 29.79 in 10.0 mi WSW 10.4 mph - N/A   Overcast
10:52 AM 71.1 °F 66.0 °F 84% 29.78 in 10.0 mi WSW 10.4 mph - N/A   Overcast
11:09 AM 71.6 °F 64.4 °F 78% 29.78 in 10.0 mi West 10.4 mph - N/A   Overcast
11:38 AM 71.6 °F 64.4 °F 78% 29.78 in 10.0 mi West 13.8 mph - N/A   Overcast
11:52 AM 73.0 °F 63.0 °F 71% 29.77 in 10.0 mi West 11.5 mph 20.7 mph N/A   Overcast
12:52 PM 73.9 °F 61.0 °F 64% 29.75 in 10.0 mi WSW 12.7 mph - N/A   Overcast
1:52 PM 75.0 °F 60.1 °F 60% 29.75 in 10.0 mi WSW 12.7 mph - N/A   Overcast
2:52 PM 73.9 °F 59.0 °F 59% 29.74 in 10.0 mi WSW 15.0 mph 19.6 mph N/A   Overcast
3:52 PM 72.0 °F 55.9 °F 57% 29.75 in 10.0 mi West 13.8 mph 19.6 mph N/A   Overcast
4:52 PM 69.1 °F 57.0 °F 65% 29.76 in 10.0 mi West 12.7 mph - N/A   Mostly Cloudy
5:52 PM 66.0 °F 53.1 °F 63% 29.78 in 10.0 mi West 9.2 mph - N/A   Mostly Cloudy
6:52 PM 64.9 °F 52.0 °F 63% 29.78 in 10.0 mi West 8.1 mph - N/A   Mostly Cloudy
7:52 PM 64.0 °F 53.1 °F 67% 29.79 in 10.0 mi West 5.8 mph - N/A   Scattered Clouds
8:52 PM 63.0 °F 52.0 °F 67% 29.79 in 10.0 mi West 8.1 mph - N/A   Scattered Clouds
9:52 PM 62.1 °F 52.0 °F 70% 29.79 in 10.0 mi WNW 12.7 mph 20.7 mph N/A   Scattered Clouds
10:52 PM 61.0 °F 53.1 °F 75% 29.79 in 10.0 mi WNW 10.4 mph - N/A   Partly Cloudy
11:52 PM 60.1 °F 53.1 °F 78% 29.81 in 10.0 mi WNW 10.4 mph - N/A   Partly Cloudy